Погода в Афанасьевском

Россия / Ивановская область     56°51′15″N   41°32′50″E
темп.,
°C
ветер,
м/с
пор.,
м/с
влажн.,
%
обл.,
%
осадки,
мм/ч
давл.,
гПа
погр.,
м
17 апреля, сб
сб1700:00+6всв5137783 0.0 1026415
03:00+5всв5128291 0.0 1026375
06:00+4всв4127949 0.0 1026384
09:00+8в59585 0.0 1027558
12:00+12всв68455 0.0 1026952
15:00+13всв68374 0.0 10251121
18:00+12всв59455 0.0 1025941
21:00+8всв513610 0.0 1025494
18 апреля, вс
вс1800:00+6всв413700 0.0 1025422
03:00+4всв412750 0.0 1026384
06:00+4всв513762 0.0 1026429
09:00+8в610575 0.0 1026964
12:00+12в684225 0.0 10251536
15:00+13в683964 0.0 10251934
18:00+12всв595072 0.0 10251184
21:00+7всв512737 0.0 1027565
19 апреля, пн
пн1900:00+5всв5118075 0.0 1028538
03:00+4всв4107598 0.0 1028527
06:00+4всв41066100 0.0 1029524
09:00+5в5855100 0.0 1029690
12:00+8в584695 0.0 10291243
15:00+9в683870 0.0 10291676
18:00+8в59401 0.0 10291372
21:00+4в411514 0.0 1029386
20 апреля, вт
вт2000:00+3в4135894 0.0 1029507
03:00+1в4126066 0.0 1029454
06:00+1в41365100 0.0 1028466
09:00+5в6125490 0.0 1026675
12:00+7вюв61254100 0.0 10261029
15:00+10вюв61247100 0.0 10231386
18:00+9вюв71451100 0.0 10201261
21:00+8вюв81654100 0.0 10191169
21 апреля, ср
ср2100:00+6вюв81768100 0.3 1015925
03:00+5вюв81886100 2.1 10131052
06:00+5вюв81791100 6.1 10111127
09:00+6юв81590100 9.1 10111039
12:00+8юв71688100 0.0 10101289
15:00+9юв71490100 0.4 10111235
18:00+9ю597998 0.4 1014947
21:00+6ююв41185100 0.4 1016390